Weather History for Springfield, CO

Change the Weather History Date:

Friday, April 4, 2014

  Actual Average Record
Temperature  
Mean Temperature 42 °F -  
Max Temperature 60 °F 64 °F 81 °F (2001)
Min Temperature 23 °F 33 °F 23 °F (2002)
Degree Days  
Heating Degree Days 23 17  
Month to date heating degree days 88 69  
Since 1 July heating degree days 4797 4762  
Cooling Degree Days 0 0  
Month to date cooling degree days 0 0  
Year to date cooling degree days 0 0  
Moisture  
Dew Point 20 °F    
Average Humidity 53    
Maximum Humidity 88    
Minimum Humidity 18    
Precipitation  
Precipitation 0.00 in 0.03 in 0.49 in (1999)
Month to date precipitation 0.05 0.15  
Year to date precipitation 0.75 2.09  
Sea Level Pressure  
Sea Level Pressure 30.04 in    
Wind  
Wind Speed 12 mph (SW)    
Max Wind Speed 25 mph    
Max Gust Speed 32 mph    
T = Trace of Precipitation, MM = Missing Value Source: NWS Daily Summary

Daily Weather History Graph

Daily Weather History Graph

Search for Another Location

Airport:

Trip Planner

Search our weather history database for the weather conditions in past years. The results will help you decide how hot, cold, wet, or windy it might be!

Date:

Astronomy

Apr. 04, 2014 Rise Set
Actual Time 6:31 AM MDT 7:15 PM MDT
Civil Twilight 6:05 AM MDT 7:42 PM MDT
Nautical Twilight 5:34 AM MDT 8:13 PM MDT
Astronomical Twilight 5:02 AM MDT 8:45 PM MDT
Moon 9:54 AM MDT (4/4) No Moon Set
Length of Visible Light 13h 37m
Length of Day
12h 44m
Waxing Crescent, 26% of the Moon is Illuminated
Apr 4
Waxing Crescent
Apr 7
First Quarter
Apr 15
Full
Apr 22
Last Quarter
Apr 29
New

Hourly Weather History & Observations

Time (MDT) Temp. Windchill Dew Point Humidity Pressure Visibility Wind Dir Wind Speed Gust Speed Precip Events Conditions
12:56 AM 28.9 °F 19.8 °F 25.0 °F 85% 30.13 in - West 10.4 mph - N/A   Unknown
1:56 AM 28.0 °F 18.6 °F 24.1 °F 85% 30.13 in - WNW 10.4 mph - N/A   Unknown
2:56 AM 25.0 °F 16.3 °F 21.9 °F 88% 30.12 in - WNW 8.1 mph - N/A   Unknown
3:56 AM 28.0 °F 19.3 °F 24.1 °F 85% 30.11 in - WNW 9.2 mph - N/A   Unknown
4:56 AM 25.0 °F 14.8 °F 21.9 °F 88% 30.14 in - WNW 10.4 mph - N/A   Unknown
5:56 AM 25.0 °F 14.8 °F 21.9 °F 88% 30.14 in - WNW 10.4 mph - N/A   Unknown
6:56 AM 23.0 °F 17.0 °F 19.9 °F 88% 30.17 in - West 4.6 mph - N/A   Unknown
7:56 AM 32.0 °F 27.5 °F 27.0 °F 82% 30.16 in - West 4.6 mph - N/A   Unknown
8:56 AM 42.1 °F - 27.0 °F 55% 30.13 in - Calm Calm - N/A   Unknown
9:56 AM 46.9 °F - 26.1 °F 44% 30.12 in - South 8.1 mph - N/A   Unknown
10:56 AM 51.1 °F - 25.0 °F 36% 30.11 in - South 15.0 mph - N/A   Unknown
11:56 AM 53.1 °F - 21.9 °F 30% 30.09 in - SSW 10.4 mph 20.7 mph N/A   Unknown
12:56 PM 55.9 °F - 21.0 °F 26% 30.04 in - South 15.0 mph 24.2 mph N/A   Unknown
1:56 PM 57.0 °F - 21.0 °F 25% 30.00 in - SSW 17.3 mph 27.6 mph N/A   Unknown
2:56 PM 59.0 °F - 17.1 °F 20% 29.97 in - South 15.0 mph 26.5 mph N/A   Unknown
3:56 PM 59.0 °F - 15.1 °F 18% 29.94 in - South 15.0 mph 26.5 mph N/A   Unknown
4:56 PM 57.0 °F - 15.1 °F 19% 29.94 in - South 20.7 mph 31.1 mph N/A   Unknown
5:56 PM 57.9 °F - 15.1 °F 19% 29.92 in - South 21.9 mph - N/A   Unknown
6:56 PM 54.0 °F - 15.1 °F 22% 29.93 in - South 16.1 mph - N/A   Unknown
7:56 PM 46.9 °F - 14.0 °F 27% 29.93 in - South 11.5 mph - N/A   Unknown
8:56 PM 42.1 °F 36.1 °F 12.9 °F 31% 29.94 in - South 10.4 mph - N/A   Unknown
9:56 PM 39.0 °F 32.3 °F 14.0 °F 36% 29.94 in - South 10.4 mph - N/A   Unknown
10:56 PM 39.9 °F 32.5 °F 15.1 °F 36% 29.92 in - South 12.7 mph - N/A   Unknown
11:56 PM 39.0 °F 30.6 °F 15.1 °F 38% 29.91 in - SSW 15.0 mph - N/A   Unknown